Location: Newark
(27.5900°N, 83.4900°E)
Time: 03:26:34
(UTC+00:00)

Hubble Space Telescope - Pass Details

Date: 16 December 2019
Orbit: 536 x 540 km, 28.5° (Epoch: 20 January)

Event Time Altitude Azimuth Distance (km) Brightness Sun altitude
Exits shadow 22:23:24 13° 91° (E) 1,624 3.9 -35.8°
Drops below altitude 10° 22:23:50 10° 89° (E) 1,785 4.2 -35.7°
Sets 22:26:10 0° 83° (E) 2,677 5.3 -35.2°
